Temp
97 99 100 101 99 98 96 94 93 92 92 92 93 85 86 85 94 93 94 92 92 93 90 93 92 92 91 90 89 89 86 88 84 83 90 89 96 97 94 96 90 95 97
98 98 100 100 99 97 96 94 93 91 91 94 94 95 92 86 96 95 93 92 93 92 91 89 92 90 90 87 87 85 80 83 85 84 87 83 82 93 93 96 95 94 96
96 98 98 100 100 97 95 94 91 90 91 93 94 92 94 93 93 93 92 93 91 92 91 90 88 86 86 90 87 88 84 81 88 90 83 77 75 82 89 92 95 93 95
100 100 101 100 101 100 99 96 92 90 92 92 92 90 89 87 88 93 92 95 92 92 92 91 89 87 81 84 86 88 85 83 83 88 87 87 85 83 77 79 89 94 93
103 102 102 103 103 102 100 97 92 91 91 91 91 91 88 91 93 86 91 89 91 91 92 91 90 87 91 88 86 86 86 88 88 90 84 83 82 87 85 82 81 80 90
104 104 105 104 103 103 101 98 91 90 88 90 89 89 89 89 91 92 85 92 94 93 90 90 88 88 88 88 88 87 86 86 85 87 86 81 79 77 76 75 78 82 93
104 104 103 103 101 100 99 98 92 88 88 90 90 90 89 89 88 88 92 90 94 93 83 89 88 90 88 87 87 86 85 86 85 84 86 84 83 86 89 87 87 87 92
107 106 103 103 100 99 98 97 93 89 90 89 89 90 90 92 92 91 92 92 93 95 94 92 91 89 88 87 86 87 88 89 88 86 85 87 92 91 89 86 85 83 88
104 104 104 103 100 99 97 96 94 91 92 93 91 90 90 90 92 91 91 91 90 92 92 91 88 88 87 86 86 87 86 86 86 88 86 85 91 91 91 90 88 84 80
104 104 104 103 102 101 100 98 96 93 93 96 94 93 92 91 92 93 92 92 91 90 92 88 88 87 86 85 84 87 85 83 86 89 84 84 90 89 90 88 88 87 84
104 104 104 104 103 102 101 98 97 95 95 96 96 95 95 95 92 93 92 91 90 87 87 85 86 86 85 84 83 83 84 82 83 84 83 82 83 86 89 88 88 86 86
104 104 104 104 103 101 102 100 98 99 98 97 95 96 95 95 96 92 93 93 90 89 85 84 83 85 84 84 82 82 85 82 82 83 82 83 86 81 82 85 80 82 81
102 104 103 101 101 101 101 102 100 99 101 97 97 95 96 95 94 95 93 93 91 88 87 83 82 84 84 83 82 82 83 83 84 83 82 82 81 80 82 80 81 84 83
99 102 103 101 99 98 97 97 99 101 99 100 97 94 94 95 96 95 93 92 86 86 85 84 81 84 84 84 83 83 82 83 84 84 83 83 81 80 79 80 79 79 78
99 98 99 97 95 94 94 94 95 96 98 96 95 94 93 94 94 93 90 87 87 85 85 84 84 85 85 87 83 83 82 82 83 83 82 82 79 73 74 79 79 77 78
92 92 92 92 91 92 92 92 92 93 94 92 92 92 89 88 88 88 88 85 81 77 80 79 82 81 86 78 76 81 83 82 81 81 81 81 76 74 71 71 72 72 74
90 89 89 88 88 91 90 91 90 90 87 78 79 79 79 75 72 76 79 78 78 76 76 80 80 79 81 68 72 73 84 84 82 82 81 82 88 79 79 69 69 69 69
88 88 89 86 87 87 85 85 83 81 79 76 74 73 71 70 70 72 73 74 73 71 75 78 79 79 77 68 68 71 78 80 83 82 81 80 80 80 79 80 78 79 75
89 90 90 88 84 82 82 81 79 77 77 75 72 71 72 72 72 74 76 78 78 79 79 80 78 77 77 65 65 68 77 80 78 78 81 80 79 69 68 75 75 77 79
88 88 88 87 84 80 81 78 77 77 76 76 76 76 77 78 79 77 75 76 77 77 78 78 78 74 73 63 63 68 80 74 72 76 75 70 71 67 64 73 75 74 77
87 86 84 81 79 80 81 77 78 76 77 77 78 78 78 79 77 75 74 74 75 75 75 73 75 74 71 63 61 61 71 65 68 69 75 73 64 61 60 60 73 72 71
87 86 81 76 80 82 81 79 75 76 80 79 78 77 77 78 75 73 72 69 72 72 71 70 68 65 63 60 58 59 59 61 64 65 65 62 60 59 58 59 66 62 64
86 87 83 81 81 81 81 78 76 78 77 77 75 76 75 77 78 75 71 67 65 63 61 60 60 61 61 60 58 58 58 60 61 63 60 58 57 57 58 58 61 61 70
85 85 83 80 77 81 81 80 79 79 79 77 77 78 76 73 70 74 78 75 73 70 66 63 61 62 62 62 62 62 63 61 61 62 62 60 59 59 60 62 63 67 70
85 84 80 77 75 77 77 81 81 79 76 79 78 79 78 73 72 68 67 74 66 63 73 72 70 67 63 62 58 59 64 64 61 61 64 63 61 60 62 63 68 70 71
80 79 78 75 77 79 80 79 82 82 77 80 80 79 80 78 80 77 70 50 50 48 47 47 58 66 50 47 47 47 48 49 51 64 62 61 61 62 62 61 63 66 66
MSLP
1007.10 1007.57 1008.15 1008.59 1009.28 1009.85 1010.51 1011.30 1011.83 1012.53 1012.92 1013.01 1012.74 1013.45 1013.57 1013.51 1013.41 1013.42 1013.71 1014.10 1014.32 1014.09 1014.38 1014.07 1014.25 1014.37 1014.34 1014.43 1014.71 1014.49 1014.67 1014.49 1014.92 1014.89 1013.38 1012.62 1012.23 1012.15 1012.42 1012.41 1012.70 1012.68 1012.59
1005.96 1006.83 1007.33 1007.85 1008.56 1009.42 1010.12 1010.94 1011.51 1012.28 1012.82 1012.64 1012.66 1012.38 1012.76 1013.03 1012.81 1013.15 1013.69 1014.06 1013.99 1014.17 1014.37 1014.58 1014.24 1014.42 1014.24 1014.44 1014.68 1014.72 1014.59 1014.59 1014.42 1014.32 1013.33 1012.69 1012.23 1011.96 1012.02 1012.06 1012.70 1012.84 1012.66
1005.46 1005.84 1006.60 1007.06 1007.83 1008.65 1009.71 1010.61 1011.48 1011.98 1012.47 1012.47 1012.83 1013.27 1013.23 1013.14 1013.10 1013.08 1013.51 1013.70 1013.97 1013.95 1014.08 1014.30 1014.60 1014.86 1014.98 1014.26 1014.61 1014.48 1014.67 1014.57 1014.03 1013.65 1013.94 1013.46 1013.20 1012.69 1012.12 1012.38 1012.23 1012.67 1012.40
1004.54 1005.11 1005.48 1006.38 1006.88 1007.77 1008.98 1009.91 1011.13 1011.89 1012.19 1012.47 1012.38 1012.64 1012.53 1012.50 1012.59 1012.74 1012.69 1013.10 1013.57 1013.66 1013.69 1013.77 1014.10 1014.51 1014.68 1014.62 1014.74 1014.69 1014.70 1014.66 1014.02 1013.72 1013.77 1013.82 1013.76 1012.85 1012.99 1012.68 1012.44 1012.28 1012.38
1003.01 1003.72 1004.55 1005.06 1005.99 1006.89 1008.01 1009.30 1010.67 1011.30 1011.71 1012.13 1012.23 1012.54 1012.68 1012.32 1012.34 1012.69 1012.92 1013.45 1013.40 1013.66 1013.49 1013.57 1013.85 1014.26 1014.11 1014.32 1014.61 1014.50 1014.30 1014.04 1013.66 1013.07 1013.82 1013.97 1014.10 1013.46 1013.04 1012.45 1012.88 1013.19 1011.96
1001.99 1002.72 1003.49 1004.63 1005.46 1006.46 1007.57 1008.69 1010.06 1010.93 1011.77 1011.94 1012.43 1012.42 1012.56 1012.73 1012.41 1012.70 1012.94 1012.78 1012.62 1012.97 1013.53 1013.70 1014.07 1014.19 1014.19 1014.20 1014.45 1014.42 1014.37 1014.15 1014.07 1013.76 1013.91 1013.98 1013.98 1013.82 1013.39 1012.97 1012.40 1011.96 1011.40
1001.54 1002.17 1003.06 1004.03 1005.22 1006.30 1007.36 1008.27 1009.57 1010.56 1011.35 1011.64 1011.94 1012.27 1012.53 1012.77 1012.80 1013.02 1012.69 1012.67 1011.97 1012.33 1013.29 1013.57 1013.78 1013.72 1014.03 1014.32 1014.45 1014.49 1014.44 1014.31 1014.03 1014.21 1013.81 1013.55 1013.29 1013.13 1012.89 1012.63 1012.25 1011.98 1011.62
1000.63 1001.68 1002.76 1003.75 1005.08 1006.09 1007.09 1007.89 1008.89 1009.98 1010.60 1011.17 1011.44 1011.88 1012.31 1012.35 1012.37 1012.47 1012.57 1012.59 1012.35 1012.12 1012.45 1013.09 1013.48 1013.68 1013.82 1014.06 1014.31 1014.35 1014.22 1013.78 1013.89 1014.01 1014.10 1013.57 1012.96 1013.27 1013.31 1013.26 1013.11 1012.58 1011.74
1001.15 1001.84 1002.68 1003.70 1004.78 1005.76 1006.70 1007.52 1008.42 1009.45 1009.99 1010.31 1010.89 1011.35 1011.82 1012.05 1011.77 1012.04 1012.24 1012.51 1012.59 1012.62 1012.65 1013.15 1013.65 1013.83 1014.10 1014.32 1014.33 1014.20 1014.07 1014.26 1014.29 1013.94 1014.22 1014.22 1013.47 1013.53 1013.36 1013.36 1013.17 1013.03 1012.35
1001.23 1001.90 1002.60 1003.50 1004.41 1005.29 1006.21 1007.09 1007.87 1008.62 1009.10 1009.38 1009.98 1010.49 1010.80 1011.23 1011.43 1011.50 1011.73 1011.97 1012.15 1012.66 1012.59 1013.36 1013.72 1013.99 1014.29 1014.43 1014.50 1013.99 1014.21 1014.50 1014.25 1013.98 1014.29 1014.51 1013.78 1013.81 1013.70 1013.59 1013.42 1013.35 1013.14
1001.18 1001.84 1002.42 1003.19 1004.10 1004.97 1005.67 1006.68 1007.37 1007.97 1008.37 1008.58 1008.73 1009.41 1009.80 1010.21 1010.91 1010.98 1011.23 1011.59 1011.96 1012.58 1012.74 1013.27 1013.63 1013.88 1014.12 1014.32 1014.53 1014.45 1014.29 1014.56 1014.47 1014.45 1014.54 1014.63 1014.68 1014.06 1013.74 1013.77 1013.55 1013.48 1013.40
1001.39 1001.94 1002.48 1003.11 1003.81 1004.58 1005.05 1006.04 1006.70 1007.07 1007.57 1007.75 1008.40 1008.68 1009.21 1009.45 1009.57 1010.32 1010.61 1011.02 1011.53 1012.16 1012.59 1012.96 1013.37 1013.56 1013.90 1014.25 1014.52 1014.36 1013.94 1014.27 1014.20 1014.35 1014.50 1014.49 1014.26 1014.73 1014.63 1014.13 1014.40 1014.19 1014.26
1001.86 1002.26 1002.87 1003.66 1004.06 1004.62 1005.03 1005.33 1006.21 1006.57 1006.76 1007.43 1007.87 1008.42 1008.62 1009.05 1009.24 1009.28 1009.95 1010.30 1010.86 1011.62 1012.11 1012.71 1013.25 1013.51 1013.77 1013.75 1014.00 1014.27 1014.10 1014.19 1014.13 1014.10 1014.36 1014.32 1014.49 1014.58 1014.55 1014.85 1014.49 1013.92 1014.09
1002.53 1002.65 1003.17 1003.92 1004.89 1005.37 1005.72 1006.01 1006.01 1006.29 1006.97 1007.00 1007.61 1008.05 1008.46 1008.44 1008.72 1009.05 1009.48 1010.06 1010.66 1011.56 1012.30 1012.57 1012.92 1013.20 1013.49 1013.72 1013.81 1013.76 1013.96 1014.10 1014.04 1014.22 1014.33 1014.39 1014.60 1014.55 1014.76 1014.84 1014.82 1014.65 1014.65
1003.09 1003.92 1004.17 1004.98 1005.66 1006.13 1006.59 1006.86 1007.04 1007.06 1007.09 1007.31 1007.77 1007.93 1008.24 1008.44 1008.62 1008.85 1009.35 1009.83 1010.31 1010.82 1011.34 1012.02 1012.45 1012.88 1013.05 1013.00 1013.04 1013.38 1013.62 1013.69 1013.83 1014.05 1014.41 1014.59 1014.77 1015.08 1015.30 1015.01 1014.62 1014.83 1014.65
1005.04 1005.69 1006.10 1006.33 1006.69 1006.80 1007.03 1007.27 1007.44 1007.66 1007.89 1008.14 1008.31 1008.41 1008.67 1009.07 1009.09 1009.40 1009.50 1009.83 1010.27 1010.11 1010.35 1010.02 1010.84 1012.06 1012.39 1012.01 1012.57 1013.04 1013.06 1013.37 1013.52 1013.65 1013.98 1014.37 1014.84 1015.17 1015.37 1015.51 1015.51 1015.45 1015.37
1006.27 1006.73 1007.14 1007.52 1007.71 1007.59 1007.73 1007.70 1008.11 1008.41 1008.74 1009.44 1009.78 1009.85 1010.05 1010.56 1010.82 1010.88 1010.87 1010.91 1011.07 1011.72 1011.37 1011.05 1010.91 1011.13 1011.72 1012.30 1012.28 1012.90 1012.95 1012.90 1013.10 1013.40 1013.66 1013.84 1013.43 1014.45 1014.86 1015.30 1015.46 1015.61 1015.69
1007.11 1007.53 1007.90 1008.45 1008.73 1008.99 1009.33 1009.49 1009.85 1009.97 1010.20 1010.73 1011.17 1011.29 1011.50 1011.72 1011.95 1011.87 1011.80 1011.82 1011.92 1011.74 1011.23 1010.82 1010.84 1010.91 1011.22 1011.84 1012.27 1012.72 1012.90 1013.10 1012.91 1013.05 1013.40 1013.98 1014.08 1014.34 1014.68 1014.68 1014.80 1014.49 1015.02
1007.71 1008.12 1008.54 1009.12 1009.72 1010.14 1010.50 1010.59 1010.82 1011.17 1011.36 1011.67 1012.04 1012.22 1012.24 1012.25 1012.33 1012.17 1011.87 1011.33 1011.03 1010.74 1010.39 1010.17 1010.20 1010.55 1011.02 1011.75 1012.39 1012.89 1012.78 1012.70 1012.97 1013.19 1013.13 1013.46 1014.34 1014.87 1015.01 1015.16 1014.98 1014.50 1014.14
1008.49 1008.83 1009.22 1009.84 1010.52 1010.96 1011.11 1011.36 1011.48 1011.60 1011.88 1012.19 1012.27 1012.34 1012.26 1012.07 1011.90 1012.03 1011.80 1011.42 1010.93 1010.22 1009.82 1009.58 1009.80 1010.21 1010.61 1011.33 1011.97 1012.60 1012.49 1012.86 1013.18 1013.17 1013.49 1013.22 1014.22 1015.42 1015.63 1015.48 1014.57 1014.42 1014.21
1009.04 1009.76 1010.27 1010.81 1011.42 1011.56 1011.58 1011.71 1011.80 1012.05 1012.18 1012.36 1012.31 1012.29 1012.37 1012.03 1012.20 1012.27 1011.81 1011.22 1010.45 1009.80 1009.55 1009.59 1009.74 1010.25 1010.43 1011.33 1011.56 1012.78 1013.64 1013.74 1013.76 1014.21 1013.58 1013.24 1013.87 1015.19 1015.82 1016.17 1015.26 1014.72 1014.82
1009.25 1009.92 1010.87 1011.70 1011.86 1011.84 1011.89 1012.02 1012.35 1012.52 1012.30 1012.42 1012.48 1012.52 1012.56 1012.47 1012.63 1012.53 1012.50 1012.09 1010.96 1010.49 1010.18 1010.39 1010.93 1011.60 1011.77 1011.47 1012.43 1013.64 1014.27 1014.69 1014.65 1014.66 1014.23 1014.42 1015.12 1015.85 1015.65 1016.25 1015.69 1015.10 1014.90
1009.74 1010.25 1010.95 1011.64 1012.10 1012.31 1012.28 1012.34 1012.67 1012.48 1012.64 1012.60 1012.73 1012.83 1013.01 1012.91 1012.61 1012.61 1012.75 1012.88 1012.76 1012.54 1012.37 1012.17 1012.33 1012.42 1012.69 1013.53 1014.08 1014.58 1015.06 1015.22 1015.25 1015.29 1015.35 1015.52 1015.76 1016.21 1016.46 1016.05 1015.71 1015.25 1014.72
1010.24 1010.82 1011.35 1011.95 1012.63 1012.51 1012.54 1012.62 1012.68 1012.53 1012.51 1012.66 1012.81 1012.92 1013.27 1013.66 1013.87 1013.26 1012.60 1012.99 1013.22 1013.42 1013.63 1013.73 1013.83 1014.19 1014.18 1014.22 1014.82 1015.12 1015.31 1015.50 1015.40 1015.37 1015.59 1015.99 1016.24 1016.66 1016.56 1015.97 1015.45 1015.26 1014.57
1010.79 1011.27 1012.16 1012.85 1013.26 1013.30 1013.15 1012.74 1012.65 1012.65 1012.81 1012.76 1013.05 1012.97 1013.43 1013.93 1014.26 1014.58 1014.77 1014.07 1014.91 1014.90 1014.38 1014.52 1014.52 1015.07 1015.33 1015.66 1015.83 1015.86 1015.91 1015.67 1015.56 1015.62 1015.55 1015.61 1015.95 1016.10 1015.80 1015.52 1015.03 1014.70 1014.27
1011.79 1012.26 1012.80 1013.37 1013.30 1013.21 1013.26 1013.22 1012.99 1012.70 1012.94 1012.83 1013.17 1013.49 1013.41 1013.52 1013.50 1014.11 1015.00 1015.93 1015.80 1015.46 1015.43 1015.46 1015.35 1015.74 1016.30 1016.14 1016.04 1016.14 1015.98 1015.91 1015.73 1015.48 1015.40 1015.17 1015.34 1015.19 1015.13 1015.03 1015.01 1014.90 1014.72
Wind_Speed
14 16 13 13 12 10 11 10 8 8 6 6 6 4 4 5 6 6 5 3 6 5 4 7 7 7 5 4 5 4 7 6 4 6 9 5 10 8 6 6 4 3 4
14 13 14 14 14 13 12 12 10 10 8 6 4 2 5 5 6 5 6 6 6 5 6 5 5 4 6 3 6 5 6 3 5 5 4 8 5 2 5 4 2 3 3
13 14 14 14 14 14 13 13 12 10 10 6 4 3 2 2 4 5 6 7 6 6 5 5 5 4 5 6 4 6 6 5 6 5 3 3 1 4 3 5 5 5 4
16 13 16 14 14 15 15 14 14 13 12 11 7 6 5 3 1 6 4 3 6 7 6 6 5 4 5 3 3 4 5 4 6 7 3 6 5 5 2 3 3 4 6
14 17 15 15 12 13 14 14 14 13 11 12 10 8 10 4 4 1 5 4 4 7 7 6 5 6 5 1 4 5 5 6 6 6 1 2 4 5 6 4 4 6 2
13 12 14 12 11 9 11 14 15 13 13 13 13 10 8 7 5 2 1 8 8 9 9 3 5 4 4 4 4 3 6 6 6 6 3 3 3 3 3 4 5 4 1
7 9 10 12 11 11 11 12 16 15 15 14 13 13 11 9 8 7 8 6 5 4 9 6 5 5 4 3 4 4 6 5 4 3 5 4 1 3 5 5 6 6 5
11 9 10 11 12 13 13 13 16 15 17 16 13 10 11 9 9 9 8 5 7 3 3 5 5 4 4 4 3 6 6 3 5 2 4 6 2 4 4 4 5 6 6
7 7 10 10 13 13 14 14 14 15 16 17 13 12 11 12 11 9 9 7 5 6 5 3 6 4 4 4 4 6 2 2 4 3 3 5 3 3 3 3 3 4 6
8 9 10 11 11 14 14 14 14 15 15 16 15 13 13 12 12 10 9 6 6 8 2 4 6 4 4 4 4 4 4 3 4 5 3 4 3 3 1 3 2 3 5
10 10 9 11 12 13 14 13 14 14 14 15 14 14 14 12 12 12 11 10 9 3 4 5 6 6 6 5 4 6 1 3 4 4 2 2 2 6 2 3 3 3 3
9 9 9 10 11 12 13 14 14 15 14 13 11 13 13 12 13 12 12 10 11 8 7 6 7 8 7 6 6 7 5 6 6 6 3 4 4 2 2 4 3 4 4
5 7 7 6 6 8 9 11 12 12 13 12 13 13 13 13 13 12 12 11 10 10 9 8 7 8 8 8 8 7 6 7 6 6 6 4 3 3 4 4 4 2 3
6 4 4 6 3 3 2 5 6 8 10 9 11 11 12 13 13 12 9 10 7 8 7 6 6 8 9 9 9 9 8 7 7 5 5 4 4 4 3 4 2 4 3
6 7 8 7 4 4 2 3 6 7 8 6 9 9 9 10 9 8 8 7 8 8 8 7 9 10 10 10 12 10 9 8 7 5 4 8 4 7 3 5 3 2 5
13 12 10 10 10 7 5 4 3 4 5 5 6 7 2 6 7 7 8 9 9 7 8 12 13 11 11 11 12 9 10 9 8 7 7 6 8 6 5 2 2 4 4
11 11 11 10 10 10 9 9 9 10 9 12 11 12 12 12 12 9 5 6 3 4 7 9 9 10 11 6 12 10 9 9 9 7 5 6 6 9 9 9 7 5 6
11 10 10 10 10 12 12 11 11 11 12 12 11 10 9 8 6 6 5 6 8 9 10 11 12 12 9 13 11 11 8 8 7 6 4 5 5 2 4 7 10 10 11
9 9 10 11 11 12 10 10 10 10 9 9 8 6 4 4 4 7 11 10 12 13 14 13 13 12 11 15 11 9 10 11 5 4 5 3 6 6 5 7 9 10 6
10 10 11 12 12 9 9 9 9 8 7 5 5 5 4 3 6 10 12 12 13 14 12 12 11 13 13 14 16 12 7 6 1 2 4 10 3 3 1 6 7 8 6
11 12 11 11 10 8 8 8 7 8 7 6 6 7 8 6 9 9 9 12 12 11 11 10 8 7 6 8 11 5 4 4 4 4 2 3 10 6 3 8 9 5 7
11 12 11 9 7 6 8 9 9 5 5 5 5 6 7 7 6 10 13 13 12 11 10 10 7 8 9 13 13 11 8 9 4 4 6 7 8 4 3 6 5 2 3
9 10 10 10 8 7 8 9 6 4 2 3 6 7 7 8 6 9 11 9 10 9 8 8 7 7 8 7 11 9 7 6 4 4 5 7 4 3 7 12 10 4 4
9 9 8 10 9 7 7 8 5 3 4 7 6 7 8 11 11 9 9 9 9 8 8 7 7 7 6 6 4 4 3 3 4 6 4 5 5 7 10 6 6 6 6
8 8 9 9 7 7 7 6 6 5 6 7 8 7 7 7 6 9 9 8 8 8 7 8 7 6 5 3 3 1 3 3 3 5 5 5 5 6 6 6 7 5 3
9 8 10 7 6 6 7 5 6 6 6 7 5 4 5 4 5 6 8 15 11 13 13 10 7 6 8 8 7 5 3 2 4 3 3 2 5 5 3 2 2 3 4
Wind_Direction
181 178 191 179 178 182 172 179 182 157 181 195 200 143 180 217 185 204 173 201 245 224 199 253 190 221 265 246 281 248 247 253 191 281 267 266 234 219 221 208 204 182 246
183 192 192 196 191 186 189 179 192 168 200 188 241 279 136 232 165 192 165 212 225 229 244 278 290 354 313 305 272 283 292 271 180 260 302 285 355 215 235 170 120 238 123
209 192 199 202 193 192 194 182 196 176 193 216 196 181 239 269 184 174 194 199 234 244 220 264 278 299 276 271 263 279 262 287 277 300 278 308 327 291 167 170 224 144 241
197 209 197 204 208 196 187 191 190 191 196 199 192 207 230 187 124 205 196 214 203 233 236 237 225 254 249 349 277 276 295 263 264 253 264 271 267 293 349 319 238 193 208
206 195 200 195 203 190 183 187 186 191 203 195 237 183 237 184 209 192 118 238 181 244 238 235 239 232 247 14 262 271 267 301 263 301 3 263 270 248 277 283 182 268 222
203 203 189 181 183 183 184 175 180 191 197 200 207 218 205 246 289 215 208 220 208 187 213 246 248 254 287 252 292 316 268 273 326 341 283 226 260 237 260 246 249 263 278
196 184 193 178 187 177 183 177 179 197 193 201 202 215 217 216 226 231 244 276 261 218 157 187 225 239 201 289 297 273 282 267 285 269 271 279 253 316 320 313 303 332 308
153 161 173 180 175 179 183 189 179 195 197 210 211 211 219 225 225 209 251 244 252 261 206 180 250 224 247 254 258 256 243 208 267 301 321 310 320 346 327 317 326 306 281
95 126 154 176 172 188 183 187 182 194 206 203 208 208 211 230 224 228 214 221 250 259 238 214 224 226 243 260 277 250 245 303 269 251 238 281 302 278 323 297 290 301 299
133 133 153 164 173 188 183 188 184 193 202 212 201 209 212 212 227 236 234 245 227 233 195 188 230 229 249 257 250 253 196 254 272 248 69 295 325 271 282 314 305 282 290
132 143 149 159 170 181 184 192 190 196 204 207 206 207 206 212 210 224 219 222 240 235 212 186 216 209 222 220 230 287 84 224 238 291 193 227 326 316 305 331 301 288 283
141 144 148 159 166 179 186 188 200 200 205 208 212 214 220 222 210 209 226 215 204 217 214 188 208 203 207 211 223 225 187 213 201 201 185 220 197 259 198 277 76 342 334
147 148 150 150 182 176 201 196 197 219 205 205 203 221 217 219 233 222 212 211 204 211 212 182 207 214 217 202 206 224 232 222 224 202 205 222 199 219 336 321 322 322 322
119 182 145 109 94 1 291 283 260 227 224 240 210 225 226 232 223 225 211 219 175 202 237 243 216 218 219 218 219 205 214 228 218 222 222 232 226 224 230 253 275 236 296
105 88 44 60 68 59 357 288 283 284 283 231 261 225 237 237 240 224 204 191 193 192 200 214 226 228 228 223 206 209 209 207 230 215 223 229 96 68 2 300 346 18 271
67 59 52 43 41 26 29 19 331 308 291 291 285 288 235 248 257 239 236 216 186 218 183 192 196 222 233 220 174 212 205 206 218 220 216 198 161 177 186 189 40 17 279
72 68 60 52 36 43 35 38 37 27 37 53 35 31 44 42 30 2 338 327 198 279 273 262 228 221 226 210 161 167 241 209 213 222 249 254 253 177 191 186 180 203 230
76 66 60 54 43 43 43 46 51 46 51 57 59 55 55 49 24 355 327 281 277 277 270 261 249 238 231 167 171 171 198 257 225 211 225 265 289 321 267 228 216 218 191
79 73 69 71 65 62 60 67 71 75 70 69 69 59 44 19 326 306 289 282 271 261 256 255 239 236 222 169 179 188 197 222 204 204 203 229 286 86 63 273 279 285 266
71 80 75 73 69 72 76 76 72 75 73 66 47 34 22 355 356 352 328 312 297 283 282 266 250 233 224 171 172 184 208 175 171 220 195 137 169 85 117 266 252 257 270
100 86 71 72 76 66 64 65 63 55 51 61 68 49 24 353 24 347 337 323 307 286 277 277 250 243 215 156 126 72 69 58 36 342 351 113 129 154 246 274 281 327 340
97 96 97 86 70 68 70 60 56 37 60 73 58 44 20 21 25 20 12 358 355 17 23 35 25 66 64 68 62 55 41 28 8 16 19 56 43 323 253 257 268 86 328
87 89 95 88 76 58 41 55 31 31 345 51 52 44 49 36 31 58 50 39 28 37 49 69 76 70 71 63 70 71 48 28 18 355 31 38 3 304 288 259 264 262 260
102 100 99 75 57 55 63 63 36 33 68 71 78 86 63 51 28 15 47 42 47 61 64 65 59 57 64 95 113 116 125 327 344 332 301 254 230 265 278 291 235 247 253
104 83 80 84 77 57 44 48 56 75 62 70 62 52 76 76 79 58 23 43 53 15 60 64 74 72 83 78 27 27 270 269 259 276 253 238 204 226 237 243 251 265 318
98 112 97 111 113 84 81 61 65 28 129 117 99 63 102 123 78 111 82 49 47 44 42 43 41 95 46 44 40 33 33 352 5 277 297 319 290 273 291 348 328 324 344